Zurück zum Katalog

CZ-3A DEB

AktivGTO
NORAD 35552·DEBRIS·🇨🇳 China

Gestartet Feb 2, 2007 von Xichang Satellite Launch Center

Loading…

TLE

AlterndSource: Space-Track

Epoche: Sep 14, 2026, 05:20 UTC

1 35552U 07003L   26257.22247396  .00004031  00000-0  98505-2 0  9994
2 35552  26.3302  28.2004 7433830 175.3608 201.2407  2.03199159132340

Verfolge CZ-3A DEB in Echtzeit mit AllMySat

Download on the App Store